Regional Weather Roundup
Issued by NWS

Home | Current Version | Previous Version | Text Only | Print | Product List | Glossary Off
Versions: 1 2 3 4 5 6 7 8 9 10 11 12 13 14 15 16 17 18 19 20 21 22 23 24 25 26 27 28 29 30 31 32 33 34 35 36 37 38 39 40 41 42 43 44 45 46 47 48 49 50

635
ASUS43 KOAX 071210
RWRNE

WEATHER ROUNDUP FOR NEBRASKA
NATIONAL WEATHER SERVICE OMAHA NE
600 AM CST SUN FEB 07 2016

NOTES: SATELLITE DATA IS BEING USED TO AUGMENT CLOUD COVER ABOVE
       12000 FEET.
       "FAIR" INDICATES FEW OR NO CLOUDS BELOW 12,000 FEET WITH NO
       SIGNIFICANT WEATHER AND/OR OBSTRUCTIONS TO VISIBILITY.

  * THESE STATIONS DO NOT REPORT WEATHER SUCH AS RAIN...SNOW OR FOG.

NEZ001>004-019>022-054>056-071300-
NEBRASKA PANHANDLE

CITY           SKY/WX    TMP DP  RH WIND       PRES   REMARKS
SCOTTSBLUFF    CLOUDY    31  21  66 NW14      30.19R WCI  21
6HR MIN TEMP:  26; 6HR MAX TEMP:  33;

ALLIANCE       CLOUDY    32  23  69 NW15      30.13R WCI  22
6HR MIN TEMP:  19; 6HR MAX TEMP:  33;

CHADRON        CLOUDY    35  21  56 W15       30.15S WCI  25
6HR MIN TEMP:  33; 6HR MAX TEMP:  35;

KIMBALL        CLEAR     26  17  68 N14       30.17R WCI  15
SIDNEY         MOCLDY    25  16  68 NW15      30.17R WCI  13
6HR MIN TEMP:  20; 6HR MAX TEMP:  33;

$$

NEZ057>060-069>072-079>082-071300-
SOUTHWEST NEBRASKA

CITY           SKY/WX    TMP DP  RH WIND       PRES   REMARKS
NORTH PLATTE   CLOUDY    31  22  69 NW13      30.10R WCI  21
6HR MIN TEMP:  24; 6HR MAX TEMP:  35;

IMPERIAL       CLEAR     32  17  54 NW20G25   30.14R WCI  20
6HR MIN TEMP:  29; 6HR MAX TEMP:  34;

LEXINGTON      CLOUDY    31  25  77 W12       30.08R WCI  22
MCCOOK         CLEAR     29  22  75 W9        30.12R WCI  20
6HR MIN TEMP:  29; 6HR MAX TEMP:  37;

OGALLALA       CLOUDY    35  19  52 NW18      30.14R WCI  24
$$

NEZ005>010-023>029-035>040-094-071300-
NORTH CENTRAL NEBRASKA

CITY           SKY/WX    TMP DP  RH WIND       PRES   REMARKS
VALENTINE      CLOUDY    37  22  54 NW20G32   30.04S WCI  27
6HR MIN TEMP:  36; 6HR MAX TEMP:  40;

AINSWORTH      CLOUDY    37  23  58 NW14      30.03S WCI  28
BROKEN BOW     CLOUDY    36  25  64 NW17      30.05R WCI  26
6HR MIN TEMP:  35; 6HR MAX TEMP:  40;

O`NEILL        PTCLDY    36  25  64 W16G24    30.00S WCI  26
ORD            PTCLDY    37  22  54 NW16      30.03R WCI  28
6HR MIN TEMP:  32; 6HR MAX TEMP:  37;

THEDFORD       CLOUDY    35  26  70 W9        30.08S WCI  28
$$

NEZ041-046>049-061>064-073>077-083>087-071300-
SOUTH CENTRAL NEBRASKA

CITY           SKY/WX    TMP DP  RH WIND       PRES   REMARKS
GRAND ISLAND   CLOUDY    37  23  56 NW22      30.02R WCI  26
6HR MIN TEMP:  32; 6HR MAX TEMP:  38;

AURORA         PTCLDY    36  25  64 NW20      30.01R WCI  25
HASTINGS       CLOUDY    33  24  69 NW12      30.02R WCI  24
6HR MIN TEMP:  33; 6HR MAX TEMP:  37;

HEBRON         CLOUDY    35  28  74 W5        30.03S WCI  31
HOLDREGE       PTCLDY    35  25  67 W13G18    30.07R WCI  26
YORK           PTCLDY    32  25  74 NW12      30.00R WCI  23
$$

NEZ011>018-030>034-042>045-071300-
NORTHEAST NEBRASKA

CITY           SKY/WX    TMP DP  RH WIND       PRES   REMARKS
NORFOLK        CLEAR     37  24  59 W15       29.96S WCI  28
6HR MIN TEMP:  32; 6HR MAX TEMP:  40;

ALBION         CLEAR     36  23  60 NW17      30.00R WCI  25
BLAIR          CLOUDY    36  26  67 NW9       29.93S WCI  29
COLUMBUS *     CLOUDY    37  19  48 NW23G29   29.97R WCI  26
FREMONT        CLOUDY    34  24  66 W6        29.96R WCI  29
TEKAMAH        CLOUDY    38  27  64 NW28G33   29.92F WCI  26
6HR MIN TEMP:  27; 6HR MAX TEMP:  39;

WAYNE          CLEAR     35  25  67 W18       29.95S WCI  24
$$

NEZ050>053-065>068-078-088>093-071300-
SOUTHEAST NEBRASKA

CITY           SKY/WX    TMP DP  RH WIND       PRES   REMARKS
LINCOLN        CLOUDY    36  25  64 NW6       30.00R WCI  31
6HR MIN TEMP:  26; 6HR MAX TEMP:  39;

OMAHA EPPLEY   CLOUDY    39  26  59 W14       29.93F WCI  31
6HR MIN TEMP:  31; 6HR MAX TEMP:  40;

BEATRICE       CLOUDY    34  28  77 NW9       30.01R WCI  27
FALLS CITY     CLOUDY    35  27  72 W14       29.98R WCI  26
6HR MIN TEMP:  35; 6HR MAX TEMP:  39;

NEBRASKA CITY  PTCLDY    35  28  74 NW10      29.96S WCI  27
PLATTSMOUTH    PTCLDY    35  27  73 NW10      29.94S WCI  27
$$

NEZ044-045-051>053-067-071300-
OMAHA AREA

CITY           SKY/WX    TMP DP  RH WIND       PRES   REMARKS
OMAHA EPPLEY   CLOUDY    39  26  59 W14       29.93F WCI  31
6HR MIN TEMP:  31; 6HR MAX TEMP:  40;

BLAIR          CLOUDY    36  26  67 NW9       29.93S WCI  29
FREMONT        CLOUDY    34  24  66 W6        29.96R WCI  29
MILLARD        PTCLDY    39  27  60 NW10G18   29.94F WCI  33
OFFUTT AFB     CLEAR     31  26  81 CALM      29.94S
PLATTSMOUTH    PTCLDY    35  27  73 NW10      29.94S WCI  27
WAHOO          FAIR      37  26  66 NW15      29.95S WCI  28
$$




USA.gov is the U.S. government's official web portal to all federal, state and local government web resources and services.